Regional Weather Roundup
Issued by NWS

Home | Current Version | Previous Version | Graphics & Text | Print | Product List | Glossary On
Versions: 1 2 3 4 5 6 7 8 9 10 11 12 13 14 15 16 17 18 19 20 21 22 23 24 25 26 27 28 29 30 31 32 33 34 35 36 37 38 39 40 41 42 43 44 45 46 47 48 49 50
000
ASUS43 KLOT 221906
RWRIL

ILLINOIS REGIONAL WEATHER ROUNDUP
NATIONAL WEATHER SERVICE CHICAGO/ROMEOVILLE IL
200 PM CDT MON SEP 22 2014

NOTE: "FAIR" INDICATES FEW OR NO CLOUDS BELOW 12,000 FEET WITH NO
SIGNIFICANT WEATHER AND/OR OBSTRUCTIONS TO VISIBILITY.

* THESE STATIONS ARE NOT UNDER NWS QUALITY CONTROL. THEY ALSO MAY NOT
  REPORT WEATHER SUCH AS PRECIPITATION OR FOG.

ILZ001-002-007-009-015-016-024-222000-
NORTHWEST ILLINOIS

CITY           SKY/WX    TMP DP  RH WIND       PRES   REMARKS
MOLINE         SUNNY     66  42  41 CALM      30.28F
STERLING*      SUNNY     66  43  42 CALM      30.28F
SAVANNA*       SUNNY     66  41  39 CALM      30.28F
$$

ILZ003-004-008-010-011-017-018-222000-
NORTH CENTRAL ILLINOIS

CITY           SKY/WX    TMP DP  RH WIND       PRES   REMARKS
ROCKFORD       SUNNY     67  42  40 VRB3      30.28F
ROCHELLE*      SUNNY     65  42  43 NW3       30.28F
DE KALB*       SUNNY     62  42  47 CALM      30.28F
PERU*          SUNNY     66  40  39 NE5       30.28F
$$

ILZ005-006-012>014-019>023-222000-
NORTHEAST ILLINOIS

CITY           SKY/WX    TMP DP  RH WIND       PRES   REMARKS
CHICAGO-OHARE  SUNNY     61  40  45 W6        30.27F
CHICAGO-MIDWAY SUNNY     66  44  45 CALM      30.27F
AURORA           N/A     65  41  41 CALM      30.28F
LANSING*       SUNNY     63  42  47 N3        30.28S
JOLIET*        SUNNY     64  41  43 NE3       30.28F
WAUKEGAN       SUNNY     63  44  50 VRB6      30.25F
DUPAGE AIRPORT SUNNY     66  42  41 N8        30.27F
KANKAKEE*      SUNNY     64  44  49 NE5       30.27F
WHEELING       SUNNY     66  40  38 CALM      30.28F
MORRIS*        SUNNY     67  43  41 NW5       30.27F
ROMEOVILLE*    SUNNY     64  42  44 NW6       30.28S
NORTHERLY ISL    N/A     58  45  62 E6          N/A
$$

LMZ740>746-222000-
SOUTHERN LAKE MICHIGAN

STATION/POSITION SKY/WX   TEMP    WIND        PRES    VSBY  WAVE
                          AIR SEA DIR/SP/G                  HT/PER
                          (F)     (DEG/KT/KT) (MB)    (MI)  (FT/S)
SOUTHERN BUOY              56 62  250/  8/ 10 1025.1F         2/ 7
WAUKEGAN HARBOR            62     150/  7/  8   N/A
HARRISON CRIB              56      70/  5/  6   N/A
BURNHAM HARBOR             58      70/  5/  6   N/A
CALUMET HARBOR             57      40/  5/  8 1024.1F
MICHIGAN CITY              58     320/  8/  9   N/A
MICHIGAN CITY 6N           56 64  340/  4/  8   N/A           4/ 6
ST. JOSEPH                 56 65  320/  6/ 10   N/A           3/ 5
$$

ILZ025>027-034>036-040-047-049-050-058-095>099-222000-
WEST-CENTRAL ILLINOIS

CITY           SKY/WX    TMP DP  RH WIND       PRES   REMARKS
QUINCY         SUNNY     70  43  37 W5        30.28F
GALESBURG*     SUNNY     72  49  43 E3        30.29F
MACOMB*        SUNNY     68  38  33 CALM      30.30F
JACKSONVILLE*  SUNNY     71  42  35 NE5       30.28F
PITTSFIELD*    SUNNY     71  39  31 N3        30.29F
$$

ILZ028>032-037-038-041>044-048-051>054-059>061-222000-
CENTRAL ILLINOIS

CITY           SKY/WX    TMP DP  RH WIND       PRES   REMARKS
PONTIAC        SUNNY     66  43  42 CALM      30.27F
DECATUR        SUNNY     69  46  43 NE7       30.28F
PEORIA         SUNNY     68  41  37 E5        30.29F
LACON*         SUNNY     65  40  39 N6        30.28F
LINCOLN*       SUNNY     70  43  37 NE8       30.25F
SPRINGFIELD    SUNNY     70  46  42 CALM      30.28F
TAYLORVILLE    SUNNY     68  45  42 W8        30.27F
$$

ILZ033-039-045-046-055>057-062-063-222000-
EAST-CENTRAL ILLINOIS

CITY           SKY/WX    TMP DP  RH WIND       PRES   REMARKS
CHAMPAIGN      SUNNY     67  45  45 N9        30.27F
DANVILLE*      SUNNY     65  44  46 NW7       30.24F
RANTOUL*       SUNNY     67  41  38 NE3       30.27F
MATTOON        SUNNY     68  46  45 NW3       30.26F
PARIS*         SUNNY     67  45  44 N5        30.27F
$$

ILZ079-100>102-222000-
SOUTHWEST ILLINOIS

CITY           SKY/WX    TMP DP  RH WIND       PRES   REMARKS
ALTON          SUNNY     72  39  30 W7        30.27
BELLEVILLE     SUNNY     72  50  46 NW6       30.26F
CAHOKIA*       SUNNY     73  48  41 N8        30.27F
SPARTA*        SUNNY     71  48  44 NW3       30.28F
$$

ILZ064>066-069>071-074>076-080>082-084>086-088>090-092>094-222000-
SOUTH-CENTRAL ILLINOIS

CITY           SKY/WX    TMP DP  RH WIND       PRES   REMARKS
CARBONDALE     SUNNY     71  46  40 NW9       30.26F
CAIRO*         SUNNY     73  48  40 N10       30.23F
EFFINGHAM*     SUNNY     69  41  35 N6        30.26F
MARION         SUNNY     70  46  43 N6        30.26F
MT. VERNON     SUNNY     68  46  45 N6        30.27F
CENTRALIA*     SUNNY     69  45  42 N8        30.26F
SALEM*         SUNNY     70  50  48 N5        30.26F
METROPOLIS*    SUNNY     73  46  37 NW6       30.23F
$$

ILZ067-068-072-073-078-083-087-091-222000-
SOUTHEAST ILLINOIS

CITY           SKY/WX    TMP DP  RH WIND       PRES   REMARKS
LAWRENCEVILLE  SUNNY     69  45  41 N10       30.26F
FLORA*         SUNNY     69  45  41 N8        30.26F
FAIRFIELD*     SUNNY    N/A N/A N/A N10       30.25F
HARRISBURG*    SUNNY     69  46  44 N7        30.26F
ROBINSON*      SUNNY     69  49  47 N7        30.27F
CARMI*         SUNNY     73  48  42 NW7       30.25F
$$

ABBREVIATIONS USED IN REMARKS
   TC - TEMPERATURE IN CELSIUS
  WCI - WIND CHILL INDEX
   HX - HEAT INDEX
  VSB - VISIBILITY
$$



USA.gov is the U.S. government's official web portal to all federal, state and local government web resources and services.